| time (UTC) | temp F | wind direction | speed MPH | gust MPH | rain 1hr in | rain 24hr in | rain mn in | humidity % | barometer mb |
| 20260904173055 | 91 | 230 | 3.0 | 9.0 | 0.00 | 0.00 | 0.00 | 74 | 1011.7 |
| 20260904171614 | 91 | 170 | 4.0 | 9.0 | 0.00 | 0.00 | 0.00 | 76 | 1011.8 |
| 20260904170050 | 91 | 215 | 2.0 | 8.0 | 0.00 | 0.00 | 0.00 | 75 | 1012.1 |
| 20260904164544 | 90 | 198 | 3.0 | 9.0 | 0.00 | 0.00 | 0.00 | 76 | 1012.1 |
| 20260904163042 | 89 | 142 | 2.0 | 9.0 | 0.00 | 0.00 | 0.00 | 77 | 1012.0 |
| 20260904161558 | 90 | 237 | 3.0 | 9.0 | 0.00 | 0.00 | 0.00 | 77 | 1012.2 |
| 20260904160048 | 89 | 175 | 3.0 | 8.0 | 0.00 | 0.00 | 0.00 | 75 | 1012.2 |
| 20260904154551 | 89 | 338 | 3.0 | 7.0 | 0.00 | 0.00 | 0.00 | 77 | 1012.2 |
| 20260904153058 | 88 | 227 | 2.0 | 8.0 | 0.00 | 0.00 | 0.00 | 78 | 1012.1 |
| 20260904151553 | 88 | 159 | 2.0 | 8.0 | 0.00 | 0.00 | 0.00 | 78 | 1012.0 |
| 20260904150043 | 88 | 259 | 2.0 | 7.0 | 0.00 | 0.00 | 0.00 | 78 | 1011.9 |
| 20260904144556 | 86 | 204 | 2.0 | 7.0 | 0.00 | 0.00 | 0.00 | 79 | 1011.8 |
| 20260904143052 | 87 | 238 | 2.0 | 7.0 | 0.00 | 0.00 | 0.00 | 80 | 1011.8 |
| 20260904141548 | 86 | 119 | 2.0 | 9.0 | 0.00 | 0.00 | 0.00 | 82 | 1011.7 |
| 20260904140048 | 86 | 241 | 1.0 | 6.0 | 0.00 | 0.00 | 0.00 | 84 | 1011.8 |
| 20260904134559 | 85 | 150 | 3.0 | 8.0 | 0.00 | 0.00 | 0.00 | 86 | 1011.7 |
| 20260904133100 | 84 | 197 | 1.0 | 4.0 | 0.00 | 0.00 | 0.00 | 88 | 1011.5 |
| 20260904131547 | 84 | 0 | 0.0 | 2.0 | 0.00 | 0.00 | 0.00 | 88 | 1011.3 |
| 20260904130047 | 84 | 0 | 1.0 | 6.0 | 0.00 | 0.00 | 0.00 | 88 | 1011.2 |
| 20260904124548 | 83 | 117 | 0.0 | 2.0 | 0.00 | 0.00 | 0.00 | 88 | 1011.1 |
| 20260904123049 | 82 | 360 | 1.0 | 6.0 | 0.00 | 0.00 | 0.00 | 88 | 1011.2 |
| 20260904121552 | 82 | 0 | 1.0 | 4.0 | 0.00 | 0.00 | 0.00 | 91 | 1010.9 |
| 20260904120058 | 81 | 21 | 1.0 | 7.0 | 0.00 | 0.00 | 0.00 | 92 | 1010.9 |
| 20260904114558 | 81 | 17 | 1.0 | 5.0 | 0.00 | 0.00 | 0.00 | 94 | 1010.7 |
| 20260904113049 | 80 | 0 | 0.0 | 5.0 | 0.00 | 0.00 | 0.00 | 94 | 1010.4 |
| 20260904111555 | 79 | 0 | 0.0 | 2.0 | 0.00 | 0.00 | 0.00 | 95 | 1010.3 |
| 20260904110048 | 79 | 0 | 0.0 | 0.0 | 0.00 | 0.00 | 0.00 | 95 | 1010.4 |
| 20260904104607 | 79 | 0 | 0.0 | 0.0 | 0.00 | 0.00 | 0.00 | 95 | 1010.2 |
| 20260904103048 | 79 | 0 | 0.0 | 1.0 | 0.00 | 0.00 | 0.00 | 95 | 1010.2 |
| 20260904101552 | 79 | 0 | 0.0 | 0.0 | 0.00 | 0.00 | 0.00 | 95 | 1010.1 |
| 20260904100106 | 79 | 0 | 0.0 | 0.0 | 0.00 | 0.00 | 0.00 | 95 | 1010.0 |
| 20260904094559 | 79 | 0 | 0.0 | 0.0 | 0.00 | 0.00 | 0.00 | 95 | 1009.7 |
| 20260904093103 | 79 | 0 | 0.0 | 0.0 | 0.00 | 0.00 | 0.00 | 95 | 1009.6 |
| 20260904091551 | 79 | 0 | 0.0 | 0.0 | 0.00 | 0.00 | 0.00 | 95 | 1009.5 |
| 20260904090048 | 79 | 0 | 0.0 | 0.0 | 0.00 | 0.00 | 0.00 | 95 | 1009.5 |
| 20260904084548 | 79 | 0 | 0.0 | 0.0 | 0.00 | 0.00 | 0.00 | 95 | 1009.4 |
| 20260904083059 | 78 | 0 | 0.0 | 0.0 | 0.00 | 0.00 | 0.00 | 95 | 1009.6 |
| 20260904081551 | 78 | 0 | 0.0 | 0.0 | 0.00 | 0.00 | 0.00 | 94 | 1009.6 |
| 20260904080052 | 78 | 0 | 0.0 | 0.0 | 0.00 | 0.00 | 0.00 | 94 | 1009.7 |
| 20260904074543 | 78 | 0 | 0.0 | 0.0 | 0.00 | 0.00 | 0.00 | 94 | 1009.6 |
| 20260904073054 | 79 | 0 | 0.0 | 0.0 | 0.00 | 0.00 | 0.00 | 93 | 1009.7 |
| 20260904071553 | 79 | 0 | 0.0 | 0.0 | 0.00 | 0.00 | 0.00 | 93 | 1009.6 |
| 20260904070052 | 79 | 0 | 0.0 | 0.0 | 0.00 | 0.00 | 0.00 | 93 | 1009.7 |
| 20260904064544 | 79 | 0 | 0.0 | 0.0 | 0.00 | 0.00 | 0.00 | 93 | 1009.6 |
| 20260904063052 | 79 | 0 | 0.0 | 0.0 | 0.00 | 0.00 | 0.00 | 93 | 1009.6 |
| 20260904061550 | 79 | 0 | 0.0 | 0.0 | 0.00 | 0.00 | 0.00 | 92 | 1009.9 |
| 20260904060116 | 79 | 0 | 0.0 | 0.0 | 0.00 | 0.00 | 0.00 | 92 | 1010.0 |
| 20260904054547 | 79 | 11 | 1.0 | 3.0 | 0.00 | 0.01 | 0.00 | 92 | 1010.1 |
| 20260904053141 | 79 | 11 | 0.0 | 3.0 | 0.00 | 0.01 | 0.00 | 92 | 1010.1 |
| 20260904051606 | 79 | 12 | 1.0 | 3.0 | 0.00 | 0.01 | 0.00 | 92 | 1010.1 |
| 20260904050049 | 79 | 12 | 1.0 | 4.0 | 0.00 | 0.01 | 0.00 | 92 | 1010.1 |
| 20260904044558 | 79 | 13 | 1.0 | 3.0 | 0.00 | 0.06 | 0.00 | 92 | 1010.2 |
| 20260904043052 | 79 | 11 | 1.0 | 3.0 | 0.00 | 0.06 | 0.00 | 93 | 1010.2 |
| 20260904041555 | 79 | 11 | 0.0 | 2.0 | 0.00 | 0.06 | 0.00 | 93 | 1010.3 |
| 20260904040053 | 79 | 11 | 0.0 | 2.0 | 0.00 | 0.06 | 0.00 | 93 | 1010.3 |
| 20260904034545 | 79 | 0 | 0.0 | 0.0 | 0.00 | 0.06 | 0.06 | 92 | 1010.3 |
| 20260904033102 | 79 | 0 | 0.0 | 3.0 | 0.00 | 0.06 | 0.06 | 92 | 1010.4 |
| 20260904031550 | 80 | 0 | 0.0 | 2.0 | 0.00 | 0.06 | 0.06 | 92 | 1010.3 |
| 20260904030048 | 80 | 0 | 0.0 | 0.0 | 0.00 | 0.06 | 0.06 | 92 | 1010.3 |
| 20260904024602 | 80 | 0 | 0.0 | 0.0 | 0.00 | 0.06 | 0.06 | 92 | 1010.3 |
| 20260904023057 | 80 | 0 | 0.0 | 2.0 | 0.00 | 0.06 | 0.06 | 91 | 1010.3 |
| 20260904021549 | 80 | 0 | 0.0 | 2.0 | 0.00 | 0.06 | 0.06 | 90 | 1010.1 |
| 20260904020050 | 81 | 0 | 0.0 | 0.0 | 0.00 | 0.06 | 0.06 | 90 | 1010.1 |
| 20260904014548 | 81 | 0 | 0.0 | 0.0 | 0.00 | 0.06 | 0.06 | 89 | 1010.1 |
| 20260904013051 | 82 | 0 | 0.0 | 2.0 | 0.00 | 0.06 | 0.06 | 87 | 1010.0 |
| 20260904011551 | 82 | 28 | 0.0 | 1.0 | 0.00 | 0.06 | 0.06 | 86 | 1009.9 |
| 20260904010049 | 82 | 0 | 0.0 | 3.0 | 0.00 | 0.06 | 0.06 | 85 | 1009.6 |
| 20260904004544 | 83 | 0 | 0.0 | 1.0 | 0.00 | 0.07 | 0.06 | 84 | 1009.8 |
| 20260904003051 | 83 | 0 | 0.0 | 0.0 | 0.00 | 0.07 | 0.06 | 83 | 1009.7 |
| 20260904001559 | 84 | 0 | 0.0 | 0.0 | 0.00 | 0.07 | 0.06 | 82 | 1009.4 |
| 20260904000110 | 85 | 0 | 0.0 | 0.0 | 0.00 | 0.07 | 0.06 | 81 | 1009.6 |
| 20260903234545 | 85 | 0 | 0.0 | 2.0 | 0.00 | 0.07 | 0.06 | 79 | 1009.6 |
| 20260903233117 | 85 | 0 | 0.0 | 1.0 | 0.00 | 0.07 | 0.06 | 79 | 1009.5 |
| 20260903231550 | 86 | 0 | 0.0 | 2.0 | 0.00 | 0.07 | 0.06 | 78 | 1009.5 |
| 20260903230106 | 86 | 0 | 0.0 | 2.0 | 0.00 | 0.07 | 0.06 | 78 | 1009.2 |
| 20260903224625 | 86 | 0 | 0.0 | 3.0 | 0.00 | 0.07 | 0.06 | 76 | 1009.2 |
| 20260903223129 | 86 | 0 | 0.0 | 3.0 | 0.00 | 0.07 | 0.06 | 77 | 1009.0 |
| 20260903221549 | 86 | 0 | 0.0 | 2.0 | 0.00 | 0.07 | 0.06 | 77 | 1008.9 |
| 20260903220048 | 86 | 253 | 1.0 | 3.0 | 0.00 | 0.07 | 0.06 | 78 | 1008.9 |
| 20260903214549 | 86 | 0 | 0.0 | 4.0 | 0.00 | 1.19 | 0.06 | 79 | 1008.8 |
| 20260903213107 | 87 | 267 | 1.0 | 6.0 | 0.00 | 1.19 | 0.06 | 78 | 1008.5 |
| 20260903211551 | 88 | 220 | 2.0 | 8.0 | 0.00 | 1.19 | 0.06 | 76 | 1008.3 |
| 20260903210112 | 88 | 263 | 3.0 | 8.0 | 0.00 | 1.19 | 0.06 | 76 | 1008.6 |
| 20260903204546 | 87 | 203 | 2.0 | 7.0 | 0.00 | 1.28 | 0.06 | 79 | 1008.6 |
| 20260903203052 | 88 | 250 | 2.0 | 5.0 | 0.00 | 1.28 | 0.06 | 80 | 1008.7 |
| 20260903201549 | 86 | 0 | 2.0 | 7.0 | 0.00 | 1.28 | 0.06 | 83 | 1008.7 |
| 20260903200053 | 86 | 186 | 0.0 | 5.0 | 0.00 | 1.28 | 0.06 | 84 | 1009.0 |
| 20260903194550 | 86 | 0 | 0.0 | 6.0 | 0.00 | 1.28 | 0.06 | 81 | 1009.4 |
| 20260903193049 | 86 | 283 | 2.0 | 7.0 | 0.00 | 1.28 | 0.06 | 80 | 1009.7 |
| 20260903191553 | 86 | 232 | 3.0 | 7.0 | 0.00 | 1.28 | 0.06 | 78 | 1009.8 |
| 20260903190050 | 87 | 205 | 2.0 | 9.0 | 0.00 | 1.28 | 0.06 | 79 | 1009.6 |
| 20260903184553 | 88 | 240 | 3.0 | 9.0 | 0.00 | 1.28 | 0.06 | 77 | 1009.8 |
| 20260903183047 | 90 | 238 | 3.0 | 8.0 | 0.00 | 1.28 | 0.06 | 74 | 1009.8 |
| 20260903181555 | 90 | 213 | 4.0 | 8.0 | 0.00 | 1.28 | 0.06 | 71 | 1009.9 |
| 20260903180050 | 91 | 206 | 2.0 | 7.0 | 0.00 | 1.28 | 0.06 | 70 | 1010.1 |
| 20260903174601 | 90 | 269 | 2.0 | 9.0 | 0.00 | 1.28 | 0.06 | 71 | 1010.0 |